KUIPER-00594

导读

KUIPER-00594(NORAD编号69279)是亚马逊低轨星座(原柯伊伯计划)的组网卫星,2025年9月KA-03任务中由Atlas V 551火箭自卡纳维拉尔角发射升空,初始进入450公里过渡轨道,后抬升至630公里工作轨道运行。该卫星搭载相控阵天线与星间激光链路,主要为全球通信薄弱区域提供低成本宽带接入服务,同时支撑亚马逊云计算相关通信业务,截至2026年6月处于正常在轨运行状态,是星座150颗在轨运作卫星之一。

基本信息
目录编号:
69279
目录名称:
KUIPER-00594
国际标识:
2026-118N
轨道中心:
EARTH
卫星名称:
KUIPER-00594
卫星全名:
KUIPER-00594
卫星状态:
在轨 (已飞行106 天)
发射日期:
2026-05-29 UTC
国别 :
美国 (US)
星等 :
--
该卫星已列入 空间交会检测服务 Space Conjunction Data Service (SCDS) ,当前飞行风险评估等级: 无高风险
轨道信息
数据来源 国际轨道数据 AOE轨道数据
星历时间 2026-09-12T01:00:13+0800
12小时前
查看轨道信息
2026-09-11T07:00:00+0800
1天前
查看轨道信息
半长轴 7007.735km 7007.689km
偏心率 0.0001554 0.0001299
轨道倾角 51.904° 51.900°
近地点辐角 62.663° 309.353°
升交点赤经 5.581° 8.895°
平近点角 297.449° 11.787°
近地点 628.508km 628.641km
远地点 630.688km 630.463km
周期 97.303分钟 97.302分钟
每日圈数 14.799134 14.79928
详细信息
使用方式:
暂无
2D轨道图
3D轨道图
轨道高度分析图
轨道倾角分析图
轨道综合分析图
查看轨道综合分析图
交会数据列表
事件ID 空间交会对象 最接近时刻(TCA) 交会距离 交会风险概率(CRP) 交会风险指数(CRI) 操作
CDM_260913-180404-179206-927923
PSLV DEB (41792)
2026-09-13T
18:04:55+0000
2.434 km
极远距离
1.501822E-6 低风险 0.39
与全量物体交会距离演化趋势
与全量物体交会风险概率演化趋势